Miscellaneous Local Product
Issued by NWS North Platte, NE

Home | Current Version | Previous Version | Graphics & Text | Print | Product List | Glossary On
Versions: 1 2 3 4 5 6 7 8 9 10 11 12 13 14 15 16 17 18 19 20 21 22 23 24 25 26 27 28 29 30 31 32 33 34 35 36 37 38 39 40 41 42 43 44 45 46 47 48 49 50
000
AXUS43 KLBF 240010
MISLBF


WESTERN AND NORTH CENTRAL NEBRASKA HOURLY WEATHER ROUNDUP
NATIONAL WEATHER SERVICE NORTH PLATTE NE
700 PM CDT SUN JUL 23 2017

NOTE: "FAIR" INDICATES FEW OR NO CLOUDS BELOW 12,000 FEET WITH NO
SIGNIFICANT WEATHER AND/OR OBSTRUCTIONS TO VISIBILITY.

NOTE: STATIONS NOT REPORTING VARIABLES SUCH AS SKY/WEATHER OR
PRESSURE ARE PROVIDED BY RAWS AND APRS NETWORKS AND ARE NOT UNDER
NATIONAL WEATHER SERVICE QUALITY CONTROL.

...OBSERVATIONS IN AND NEAR THE EASTERN PANHANDLE OF NEBRASKA...

CITY           SKY/WX    TMP DP  RH WIND       PRES   REMARKS
PINE RIDGE     SUNNY     92  55  28 E8        29.98F HX  90
GORDON         FAIR      90  54  28 E10       30.00F
CHADRON        SUNNY     95  50  21 SE9       29.95F HX  92
ALLIANCE       MOSUNNY   95  40  14 SE10      30.01F HX  91
SIDNEY         SUNNY     93  41  16 S9G20     30.07F
$$

...OBSERVATIONS IN NORTHERN NEBRASKA AND FAR SOUTHERN SOUTH DAKOTA...

CITY           SKY/WX    TMP DP  RH WIND       PRES   REMARKS
WINNER         FAIR      91  50  24 NE9       29.98F
VALENTINE      SUNNY     94  44  17 E12       29.99F HX  90
THEDFORD       SUNNY     91  52  26 E12       30.01F
AINSWORTH      SUNNY     87  58  37 E9        30.01F
O`NEILL        SUNNY     83  61  47 E7        30.01S
ORD            SUNNY     87  56  34 NE7       29.98F
BROKEN BOW     SUNNY     87  57  35 E9        30.00S
VALENTINE NWR    N/A     89  53  28 NE6         N/A
HALSEY           N/A     91  50  24 E9          N/A
BUTTE            N/A     83  57  41 E6          N/A
CHAMBERS         N/A     90  60  36 E3          N/A
EWING            N/A     82  64  54 E3          N/A
$$

...OBSERVATIONS IN SOUTHWEST NEBRASKA AND FAR NORTHEAST COLORADO...

CITY           SKY/WX    TMP DP  RH WIND       PRES   REMARKS
HOLYOKE        FAIR      95  54  24 S7        30.04F HX  93
IMPERIAL       SUNNY     95  44  17 S8        30.00F HX  91
OGALLALA       SUNNY     94  45  18 SW6       30.00F HX  90
NORTH PLATTE   SUNNY     90  62  39 SE10      29.98F HX  90
MCCOOK         SUNNY     93  53  25 SE8       29.98F HX  90
LEXINGTON      SUNNY     85  65  50 E10       29.99F
STAPLETON        N/A     93  59  31 CALM        N/A  HX  92
GOTHENBURG       N/A     89  58  34 E9          N/A
CALLAWAY         N/A     96  65  35 E8          N/A  HX  98
$$

...OBSERVATIONS IN CENTRAL LINCOLN COUNTY AREA...

CITY           SKY/WX    TMP DP  RH WIND       PRES   REMARKS
N.P. AIRPORT   SUNNY     90  62  39 SE10      29.98F HX  90
N.P. DOWNTOWN    N/A     94  59  30 CALM        N/A  HX  93
N.P. SOUTHEAST   N/A     92  60  33 SE5         N/A  HX  91
N.P. HILLCREST   N/A     92  59  32 SE12        N/A  HX  91
$$

...SOME OBSERVATIONS FROM AROUND THE REGION...

CITY           SKY/WX    TMP DP  RH WIND       PRES   REMARKS
DENVER         CLOUDY    87  45  23 SE17      30.11F
LIMON          SUNNY     81  49  32 SE13      30.16S
ASPEN          CLOUDY    78  42  27 SE12G22   30.27R
LARAMIE        CLOUDY    80  41  24 S12       30.23F
CASPER         CLOUDY    93  35  13 SE10      30.02F
CHEYENNE       CLOUDY    84  41  21 S14       30.17F
SCOTTSBLUFF    SUNNY     93  53  25 E10       30.00F HX  90
GRAND ISLAND   SUNNY     86  63  45 E9        29.98F
OMAHA          MOSUNNY   86  58  38 N10       29.93S
SIOUX FALLS    MOSUNNY   78  62  57 N9        29.99S
PIERRE         SUNNY     88  50  27 CALM      29.95F
RAPID CITY     SUNNY     91  46  21 SE12      29.98F
BISMARCK       SUNNY     84  55  36 E8        29.96F
KANSAS CITY    MOSUNNY   90  74  59 N7        29.88F HX  99
HILL CITY      SUNNY     94  58  29 E7        29.96F HX  93
WICHITA        MOSUNNY   92  69  47 NE10      29.90R HX  97
DODGE CITY     SUNNY     91  60  35 E10       29.97F HX  90
OKLAHOMA CITY  CLOUDY    83  67  58 E13       29.89R
DALLAS         CLOUDY    97  71  42 S14       29.79R HX 104
AMARILLO       SUNNY     90  56  31 E9        30.00S
$$




USA.gov is the U.S. government's official web portal to all federal, state and local government web resources and services.